Flag for U.S.A. Weather past 2 weeks in Racine, Wisconsin, U.S.A.

Now
28 °F

Overcast.


Feels Like: 24 °F
Forecast: 22 / 34 °F
Wind: 3 mph from West

Location: Batten International Airport

Current Time: Dec 20, 2014 at 3:50:47 AM

Latest Report: Dec 20, 2014 at 2:53 AM


Visibility: 10 mi

Pressure: 30.32 "Hg

Humidity: 75%

Dew point: 21 °F

Location of RacineLocation

Historic Weather in Racine — Graph

°F

Racine temperature yesterday

Maximum temperature yesterday: 32 °F (at 2:53 PM)
Minimum temperature yesterday: 27 °F (at 2:53 AM)
Average temperature yesterday: 28 °F

Past Weeks' High & Low Weather Summary

 TemperatureHumidityPressure
High50 °F (Dec 14, 10:53 AM)97% (Dec 13, 10:53 AM)30.69 "Hg (Dec 13, 10:53 AM)
Low18 °F (Dec 18, 2:53 AM)61% (Dec 19, 1:53 PM)29.67 "Hg (Dec 16, 1:04 AM)
Average34 °F80%30.23 "Hg
* Reported Dec 5 2:53 AM — Dec 20 2:53 AM, Racine, Weather by CustomWeather, © 2014

Note: Actual official high and low records may vary slightly from our data, if they occured in-between our weather recording intervals... More about our weather records

Advertising

Racine weather history for previous 24 hours

 ConditionsComfort  
Time TempWeatherWind HumidityBarometerVisibility
2:53 AM
Dec 20
28 °FOvercast.3 mph75%30.32 "Hg10 mi
1:53 AM28 °FOvercast.3 mph75%30.31 "Hg10 mi
12:53 AM28 °FOvercast.No wind75%30.30 "Hg10 mi
11:53 PM
Dec 19
28 °FOvercast.No wind72%30.30 "Hg10 mi
10:53 PM28 °FOvercast.No wind72%30.30 "Hg10 mi
9:53 PM28 °FOvercast.No wind72%30.30 "Hg10 mi
8:53 PM28 °FOvercast.3 mph72%30.31 "Hg10 mi
7:53 PM28 °FOvercast.7 mph72%30.31 "Hg10 mi
6:53 PM28 °FOvercast.5 mph69%30.33 "Hg10 mi
5:53 PM28 °FMostly cloudy.6 mph69%30.35 "Hg10 mi
4:53 PM29 °FOvercast.6 mph69%30.35 "Hg10 mi
3:53 PM30 °FOvercast.5 mph64%30.32 "Hg10 mi
2:53 PM32 °FOvercast.5 mph61%30.29 "Hg10 mi
1:53 PM31 °FOvercast.7 mph61%30.30 "Hg10 mi
12:53 PM30 °FOvercast.6 mph64%30.32 "Hg10 mi
11:53 AM30 °FOvercast.7 mph64%30.33 "Hg10 mi
10:53 AM29 °FOvercast.6 mph64%30.34 "Hg10 mi
9:53 AM29 °FBroken clouds.8 mph64%30.34 "Hg10 mi
8:53 AM28 °FOvercast.7 mph69%30.34 "Hg10 mi
7:53 AM27 °FOvercast.7 mph72%30.34 "Hg10 mi
6:53 AM27 °FOvercast.9 mph72%30.33 "Hg10 mi
5:53 AM27 °FOvercast.8 mph75%30.32 "Hg10 mi
4:53 AM27 °FOvercast.5 mph78%30.31 "Hg10 mi
3:53 AM27 °FOvercast.6 mph75%30.31 "Hg10 mi
Weather by CustomWeather, © 2014

See weather overviewHow to use our weather pages